Home   Weather   Vieux Fort   Past weeks
Flag for Saint Lucia

Past Weather in Vieux Fort, Saint Lucia — Yesterday and Last 2 Weeks

Now
88 °F

Scattered clouds.


Feels Like: 96 °F
Forecast: N/A
Wind: 21 mph from East

Location: Hewanorra International Airport

Current Time: Jul 21, 2019 at 3:51:01 pm

Latest Report: Jul 21, 2019 at 3:00 pm


Visibility: N/A

Pressure: 29.95 "Hg

Humidity: 62%

Dew Point: 73 °F

Location of Vieux FortLocation

Past Weather in Vieux Fort — Graph

°F

Vieux Fort Temperature Yesterday

Maximum temperature yesterday: 88 °F (at 12:00 pm)
Minimum temperature yesterday: 81 °F (at 2:00 am)
Average temperature yesterday: 84 °F

High & Low Weather Summary for the Past Weeks

 TemperatureHumidityPressure
High88 °F (Jul 6, 2:00 pm)100% (Jul 14, 11:00 pm)30.09 "Hg (Jul 14, 11:00 pm)
Low75 °F (Jul 14, 11:00 pm)59% (Jul 21, 1:00 pm)29.89 "Hg (Jul 11, 5:00 pm)
Average84 °F76%29.99 "Hg
* Reported Jul 6 2:00 pm — Jul 21 2:00 pm, Vieux Fort. Weather by CustomWeather, © 2019

Note: Actual official high and low records may vary slightly from our data, if they occured in-between our weather recording intervals... More about our weather records

Advertising

Vieux Fort Weather History for the Previous 24 Hours

Scroll right to see more
 ConditionsComfort  
Time TempWeatherWind HumidityBarometerVisibility
2:00 pm
Sun, Jul 21
88 °FPassing clouds.17 mph62%29.98 "HgN/A
1:00 pm88 °FPassing clouds.20 mph59%29.98 "HgN/A
12:00 pm88 °FPassing clouds.21 mph62%29.98 "HgN/A
11:00 am84 °FScattered clouds.17 mph74%29.98 "HgN/A
10:00 am86 °FPassing clouds.22 mph66%29.98 "HgN/A
9:00 am84 °FScattered clouds.20 mph70%29.98 "HgN/A
8:00 am82 °FScattered clouds.18 mph66%29.98 "HgN/A
7:00 am81 °FPassing clouds.16 mph79%29.98 "HgN/A
6:00 am81 °FScattered showers. Passing clouds.15 mph74%29.95 "HgN/A
5:00 am81 °FPassing clouds.15 mph79%29.95 "HgN/A
3:00 am82 °FScattered showers. Passing clouds.16 mph74%29.95 "HgN/A
2:00 am82 °FScattered showers. Passing clouds.15 mph74%29.95 "HgN/A
1:00 am82 °FScattered showers. Passing clouds.15 mph74%29.95 "HgN/A
12:00 am82 °FPassing clouds.14 mph79%29.98 "HgN/A
11:00 pm
Sat, Jul 20
82 °FPassing clouds.17 mph79%30.01 "HgN/A
10:00 pm82 °FPassing clouds.16 mph79%30.01 "HgN/A
9:00 pm82 °FPassing clouds.16 mph79%29.98 "HgN/A
8:00 pm82 °FPassing clouds.15 mph79%29.98 "HgN/A
7:00 pm82 °FPassing clouds.16 mph79%29.95 "HgN/A
6:00 pm84 °FPassing clouds.17 mph74%29.95 "HgN/A
5:00 pm86 °FPassing clouds.17 mph70%29.95 "HgN/A
4:00 pm88 °FPassing clouds.16 mph66%29.95 "HgN/A
3:00 pm88 °FPassing clouds.18 mph66%29.95 "HgN/A
Weather by CustomWeather, © 2019

See weather overview